Location: Observatoire de Paris
(48.8363°N, 2.3365°E)
Time: 05:13:34
(UTC+01:00)

S-56A Canister/Altair - Visible Passes

Search period start: 06 August 2021 00:00
Search period end: 16 August 2021 00:00
Orbit: 631 x 2501 km, 38.9° (Epoch: 05 August)

Date Brightness Start Highest point End Pass type
(mag) Time Alt. Az. Time Alt. Az. Time Alt. Az.
06 Aug 11.4 21:46:57 10° WSW 21:52:39 13° SW 21:58:03 10° SSW visible
07 Aug 11.4 21:12:06 10° W 21:19:43 16° SW 21:26:54 10° SSW visible
08 Aug 11.4 20:37:46 10° W 20:46:43 19° SW 20:55:14 10° S visible
